{"data":{"norad_id":64217,"intl_designator":"2025-117Q","name":"STARLINK-34320","alt_names":[],"object_type":"PAYLOAD","status":"ACTIVE","operator":null,"country":"US","launch_date":"2025-05-31","launch_site_code":"AFWTR","launch_vehicle":null,"mission":null,"orbit_class":"UNKNOWN","rcs_meters":null,"size_class":null,"mass_kg":null,"dimensions":null,"purposes":["comms"],"wikipedia_slug":null,"has_3d_model":false,"image_url":null,"decayed_at":null,"tle_current":{"epoch":"2026-05-23T03:52:03.017856Z","epoch_age_seconds":229985,"freshness":"STALE","line1":"1 64217U 25117Q   26143.16114604  .00025999  00000+0  88685-3 0  9996","line2":"2 64217  53.1597  53.9741 0001179  86.9517 273.1619 15.30200733 55929","mean_motion":15.30200733,"eccentricity":0.0001179,"inclination_deg":53.1597,"raan_deg":53.9741,"arg_perigee_deg":86.9517,"mean_anomaly_deg":273.1619,"bstar":0.00088685,"rev_number":5592,"period_min":94.105300627901,"perigee_km":474.40487086337,"apogee_km":476.02089076527,"semimajor_km":6853.3498808143,"source":"CELESTRAK","updated_at":"2026-05-25T13:38:20.320025Z"}}}